{"data":{"norad_id":68277,"epoch":"2026-09-19T22:15:08.402976Z","epoch_age_seconds":101631,"freshness":"FRESH","line1":"1 68277U 26055R   26262.92718059  .00019205  00000+0  57815-3 0  9992","line2":"2 68277  53.1570 132.4874 0001773  39.3357 320.7774 15.34395964 29730","mean_motion":15.34395964,"eccentricity":0.0001773,"inclination_deg":53.157,"raan_deg":132.4874,"arg_perigee_deg":39.3357,"mean_anomaly_deg":320.7774,"bstar":0.00057815,"rev_number":2973,"period_min":93.848004933882,"perigee_km":461.50235297449,"apogee_km":463.92811917741,"semimajor_km":6840.8522360759,"source":"CELESTRAK","updated_at":"2026-09-20T09:00:43.848996Z"}}